Weather History for KPYM - October, 2014

Change the Weather History Date:

Friday, October 24, 2014

  Actual Average Record
Temperature  
Mean Temperature 50 °F -  
Max Temperature 53 °F - - ()
Min Temperature 46 °F - - ()
Degree Days  
Heating Degree Days 15    
Moisture  
Dew Point 48 °F    
Average Humidity 90    
Maximum Humidity 100    
Minimum Humidity 80    
Precipitation  
Precipitation 0.08 in - - ()
Sea Level Pressure  
Sea Level Pressure 29.68 in    
Wind  
Wind Speed 12 mph (NNW)    
Max Wind Speed 16 mph    
Max Gust Speed 29 mph    
Visibility 8 miles    
Events Rain    
T = Trace of Precipitation, MM = Missing Value Source: NWS Daily Summary

Daily Weather History Graph

Daily Weather History Graph

Search for Another Location

Airport or City:

Trip Planner

Search our weather history database for the weather conditions in past years. The results will help you decide how hot, cold, wet, or windy it might be!

Date:

Astronomy

Oct. 24, 2014 Rise Set
Actual Time 7:05 AM EDT 5:47 PM EDT
Civil Twilight 6:37 AM EDT 6:16 PM EDT
Nautical Twilight 6:04 AM EDT 6:48 PM EDT
Astronomical Twilight 5:32 AM EDT 7:21 PM EDT
Moon 7:42 AM EDT (10/24) 6:25 PM EDT (10/24)
Length of Visible Light 11h 39m
Length of Day
10h 42m
New Moon, 1% of the Moon is Illuminated
Oct 24
New Moon
Oct 30
First Quarter
Nov 6
Full
Nov 14
Last Quarter
Nov 22
New

Hourly Weather History & Observations

Time (EDT) Temp. Dew Point Humidity Pressure Visibility Wind Dir Wind Speed Gust Speed Precip Events Conditions
12:28 AM 51.1 °F 50.0 °F 96% 29.62 in 4.0 mi North 13.8 mph 28.8 mph 0.04 in Rain Light Rain
12:52 AM 51.1 °F 50.0 °F 96% 29.62 in 4.0 mi North 16.1 mph 25.3 mph 0.04 in Rain Light Rain
1:52 AM 50.0 °F 50.0 °F 100% 29.61 in 3.0 mi North 15.0 mph 27.6 mph 0.01 in Rain Light Rain
2:21 AM 50.0 °F 48.9 °F 96% 29.62 in 2.5 mi North 16.1 mph 25.3 mph 0.01 in Rain Light Rain
2:36 AM 50.0 °F 48.9 °F 96% 29.62 in 3.0 mi North 12.7 mph 21.9 mph 0.01 in Rain Light Rain
2:52 AM 50.0 °F 48.9 °F 96% 29.63 in 3.0 mi North 13.8 mph 23.0 mph 0.01 in Rain Light Rain
3:52 AM 50.0 °F 48.9 °F 96% 29.63 in 4.0 mi North 10.4 mph - 0.01 in Rain Light Rain
4:52 AM 48.9 °F 48.0 °F 97% 29.65 in 7.0 mi NNW 12.7 mph - 0.00 in   Overcast
5:52 AM 48.9 °F 48.0 °F 97% 29.65 in 7.0 mi NNW 10.4 mph - 0.01 in   Overcast
6:52 AM 48.9 °F 48.0 °F 97% 29.66 in 5.0 mi NNW 11.5 mph - 0.00 in Rain Light Rain
7:52 AM 48.9 °F 48.0 °F 97% 29.67 in 8.0 mi NNW 10.4 mph - 0.00 in   Overcast
8:52 AM 50.0 °F 48.9 °F 96% 29.68 in 8.0 mi NW 9.2 mph - N/A   Overcast
9:28 AM 50.0 °F 48.9 °F 96% 29.69 in 10.0 mi North 12.7 mph - N/A   Overcast
9:49 AM 51.8 °F 48.2 °F 88% 29.69 in 10.0 mi NNW 12.7 mph - N/A   Overcast
9:52 AM 51.1 °F 48.9 °F 92% 29.69 in 10.0 mi NNW 12.7 mph - N/A   Overcast
10:33 AM 52.0 °F 48.9 °F 89% 29.69 in 10.0 mi North 13.8 mph 23.0 mph N/A   Overcast
10:52 AM 52.0 °F 50.0 °F 93% 29.69 in 8.0 mi NNW 9.2 mph - N/A   Overcast
11:00 AM 52.0 °F 48.9 °F 89% 29.69 in 10.0 mi NNW 15.0 mph 20.7 mph N/A   Overcast
11:08 AM 52.0 °F 48.9 °F 89% 29.69 in 10.0 mi North 10.4 mph 20.7 mph N/A   Overcast
11:17 AM 52.0 °F 48.9 °F 89% 29.69 in 10.0 mi North 9.2 mph - N/A   Overcast
11:52 AM 51.1 °F 48.9 °F 92% 29.70 in 4.0 mi NNW 10.4 mph - 0.00 in Rain Light Rain
12:49 PM 51.8 °F 48.2 °F 88% 29.68 in 6.0 mi NNW 8.1 mph - 0.00 in Rain Light Rain
12:52 PM 51.1 °F 48.9 °F 92% 29.68 in 7.0 mi NW 10.4 mph - 0.00 in Rain Light Rain
1:18 PM 51.1 °F 48.9 °F 92% 29.67 in 10.0 mi NNW 8.1 mph - 0.00 in   Overcast
1:52 PM 51.1 °F 48.9 °F 92% 29.68 in 10.0 mi NNW 10.4 mph - 0.00 in   Overcast
2:14 PM 52.0 °F 48.9 °F 89% 29.67 in 10.0 mi NNW 10.4 mph - N/A   Overcast
2:52 PM 52.0 °F 48.0 °F 86% 29.68 in 10.0 mi NNW 8.1 mph - N/A   Overcast
3:01 PM 52.0 °F 48.0 °F 86% 29.68 in 10.0 mi NW 9.2 mph - N/A   Overcast
3:52 PM 52.0 °F 48.0 °F 86% 29.69 in 10.0 mi NW 6.9 mph - N/A   Overcast
4:52 PM 52.0 °F 46.9 °F 83% 29.70 in 10.0 mi NW 8.1 mph - N/A   Overcast
5:52 PM 52.0 °F 46.9 °F 83% 29.71 in 10.0 mi West 5.8 mph - N/A   Overcast
6:52 PM 51.1 °F 45.0 °F 80% 29.73 in 10.0 mi WNW 9.2 mph - N/A   Overcast
7:30 PM 50.0 °F 45.0 °F 83% 29.72 in 10.0 mi West 8.1 mph - N/A   Overcast
7:52 PM 50.0 °F 45.0 °F 83% 29.73 in 10.0 mi WNW 8.1 mph - N/A   Overcast
8:52 PM 50.0 °F 44.1 °F 80% 29.73 in 10.0 mi WNW 9.2 mph - N/A   Overcast
9:52 PM 50.0 °F 44.1 °F 80% 29.73 in 10.0 mi WNW 6.9 mph - N/A   Overcast
10:52 PM 48.0 °F 44.1 °F 86% 29.74 in 10.0 mi NW 4.6 mph - N/A   Mostly Cloudy
11:26 PM 48.0 °F 43.0 °F 83% 29.74 in 10.0 mi NW 3.5 mph - N/A   Scattered Clouds
11:52 PM 46.9 °F 43.0 °F 86% 29.74 in 10.0 mi WNW 4.6 mph - N/A   Clear